Weather History for Columbia Owens, SC

Change the Weather History Date:

Friday, October 18, 2013

  Actual Average Record
Temperature  
Mean Temperature 70 °F 64 °F  
Max Temperature 76 °F 75 °F 87 °F (2007)
Min Temperature 64 °F 53 °F 42 °F (2001)
Degree Days  
Heating Degree Days 0 3  
Month to date heating degree days 2 29  
Since 1 July heating degree days 2 32  
Cooling Degree Days 5 2  
Month to date cooling degree days 119 75  
Year to date cooling degree days 2192 2222  
Growing Degree Days 20 (Base 50)    
Moisture  
Dew Point 66 °F    
Average Humidity 84    
Maximum Humidity 97    
Minimum Humidity 74    
Precipitation  
Precipitation 0.01 in 0.12 in 0.77 in (2011)
Month to date precipitation 0.15 2.06  
Year to date precipitation 44.99 37.95  
Sea Level Pressure  
Sea Level Pressure 29.96 in    
Wind  
Wind Speed 1 mph (East)    
Max Wind Speed 7 mph    
Max Gust Speed 10 mph    
Visibility 9 miles    
Events Rain    
T = Trace of Precipitation, MM = Missing Value Source: NWS Daily Summary

Daily Weather History Graph

Daily Weather History Graph

Search for Another Location

Airport:

Trip Planner

Search our weather history database for the weather conditions in past years. The results will help you decide how hot, cold, wet, or windy it might be!

Date:

Astronomy

Oct. 18, 2013 Rise Set
Actual Time 7:31 AM EDT 6:45 PM EDT
Civil Twilight 7:06 AM EDT 7:11 PM EDT
Nautical Twilight 6:37 AM EDT 7:40 PM EDT
Astronomical Twilight 6:08 AM EDT 8:09 PM EDT
Moon 6:36 PM EDT (10/18) 7:05 AM EDT (10/18)
Length of Visible Light 12h 04m
Length of Day
11h 14m
Full, 100% of the Moon is Illuminated
Oct 18
Full
Oct 18
Full
Oct 26
Last Quarter
Nov 3
New
Nov 10
First Quarter

Hourly Weather History & Observations

Time (EDT) Temp. Dew Point Humidity Pressure Visibility Wind Dir Wind Speed Gust Speed Precip Events Conditions
12:53 AM 72.0 °F 66.0 °F 81% 29.91 in 10.0 mi Calm Calm - N/A   Overcast
1:53 AM 72.0 °F 66.0 °F 81% 29.91 in 10.0 mi Calm Calm - N/A   Overcast
2:53 AM 71.1 °F 66.0 °F 84% 29.90 in 10.0 mi Calm Calm - N/A   Overcast
3:53 AM 71.1 °F 66.0 °F 84% 29.91 in 10.0 mi Calm Calm - N/A   Overcast
4:53 AM 70.0 °F 66.0 °F 87% 29.92 in 10.0 mi Calm Calm - N/A   Overcast
5:53 AM 71.1 °F 66.0 °F 84% 29.93 in 10.0 mi Calm Calm - N/A   Overcast
6:11 AM 71.6 °F 66.2 °F 83% 29.93 in 10.0 mi Calm Calm - 0.00 in Rain Light Rain
6:26 AM 71.6 °F 66.2 °F 83% 29.94 in 6.0 mi Calm Calm - 0.00 in Rain Light Rain
6:53 AM 70.0 °F 68.0 °F 93% 29.94 in 7.0 mi Calm Calm - 0.01 in   Overcast
7:07 AM 69.8 °F 68.0 °F 94% 29.95 in 7.0 mi Calm Calm - N/A   Overcast
7:53 AM 71.1 °F 68.0 °F 90% 29.95 in 7.0 mi Calm Calm - N/A   Overcast
8:11 AM 71.6 °F 68.0 °F 88% 29.96 in 7.0 mi Calm Calm - N/A   Overcast
8:53 AM 71.1 °F 68.0 °F 90% 29.97 in 7.0 mi Calm Calm - N/A   Overcast
9:53 AM 72.0 °F 68.0 °F 87% 29.99 in 10.0 mi Calm Calm - N/A   Overcast
10:53 AM 73.0 °F 66.9 °F 81% 30.00 in 10.0 mi Calm Calm - N/A   Overcast
11:31 AM 75.2 °F 66.2 °F 73% 30.00 in 10.0 mi Variable 3.5 mph - N/A   Overcast
11:53 AM 75.0 °F 66.9 °F 76% 30.00 in 10.0 mi Calm Calm - N/A   Overcast
12:53 PM 73.0 °F 66.9 °F 81% 29.99 in 10.0 mi Variable 4.6 mph - N/A   Overcast
1:35 PM 71.6 °F 66.2 °F 83% 29.98 in 10.0 mi Calm Calm - N/A   Overcast
1:53 PM 72.0 °F 66.9 °F 84% 29.96 in 8.0 mi Variable 3.5 mph - N/A   Overcast
2:53 PM 71.1 °F 66.9 °F 87% 29.96 in 5.0 mi Variable 3.5 mph - 0.00 in   Overcast
3:01 PM 71.6 °F 68.0 °F 88% 29.96 in 5.0 mi ENE 3.5 mph - N/A   Overcast
3:53 PM 73.0 °F 66.9 °F 81% 29.95 in 9.0 mi Calm Calm - N/A   Overcast
4:24 PM 73.4 °F 66.2 °F 78% 29.95 in 10.0 mi Variable 4.6 mph - N/A   Mostly Cloudy
4:37 PM 73.4 °F 66.2 °F 78% 29.95 in 10.0 mi Variable 4.6 mph - N/A   Overcast
4:53 PM 71.1 °F 66.0 °F 84% 29.95 in 10.0 mi ENE 4.6 mph - N/A   Overcast
5:12 PM 71.6 °F 66.2 °F 83% 29.95 in 10.0 mi Calm Calm - N/A   Overcast
5:27 PM 71.6 °F 66.2 °F 83% 29.95 in 10.0 mi East 3.5 mph - N/A   Overcast
5:53 PM 71.1 °F 66.0 °F 84% 29.94 in 10.0 mi Variable 3.5 mph - N/A   Overcast
6:53 PM 70.0 °F 64.9 °F 84% 29.96 in 10.0 mi East 3.5 mph - N/A   Overcast
7:53 PM 68.0 °F 63.0 °F 84% 29.97 in 10.0 mi East 3.5 mph - N/A   Overcast
8:53 PM 66.9 °F 62.1 °F 84% 29.97 in 10.0 mi Calm Calm - N/A   Overcast
9:32 PM 66.2 °F 62.6 °F 88% 29.99 in 10.0 mi Calm Calm - N/A   Overcast
9:53 PM 66.9 °F 62.1 °F 84% 29.98 in 10.0 mi Calm Calm - N/A   Overcast
10:53 PM 66.0 °F 61.0 °F 84% 29.98 in 10.0 mi Calm Calm - N/A   Overcast
11:53 PM 64.9 °F 60.1 °F 84% 29.97 in 10.0 mi Calm Calm - N/A   Overcast